Estevan Point, British Columbia

1:25 PM PDT on October 21, 2017 (GMT -0700)
Estevan Point

Weather History for CWEB - December, 2012

Change the Weather History Date:

Saturday, December 1, 2012

  Actual Average Record
Temperature  
Mean Temperature 48 °F -  
Max Temperature 51 °F - - ()
Min Temperature 44 °F - - ()
Degree Days  
Heating Degree Days 17    
Moisture  
Dew Point 46 °F    
Average Humidity 93    
Maximum Humidity 98    
Minimum Humidity 86    
Precipitation  
Precipitation 0.28 in - - ()
Sea Level Pressure  
Sea Level Pressure 29.27 in    
Wind  
Wind Speed 20 mph ()    
Max Wind Speed 31 mph    
Max Gust Speed 36 mph    
T = Trace of Precipitation, MM = Missing Value Source: Averaged Metar Reports

Daily Weather History Graph

Daily Weather History Graph

Search for Another Location

Airport or City:

Trip Planner

Search our weather history database for the weather conditions in past years. The results will help you decide how hot, cold, wet, or windy it might be!

Date:

Astronomy

Dec. 01, 2012 Rise Set
Actual Time 8:01 AM PST 4:29 PM PST
Civil Twilight 7:24 AM PST 5:06 PM PST
Nautical Twilight 6:44 AM PST 5:46 PM PST
Astronomical Twilight 6:05 AM PST 6:25 PM PST
Moon 7:30 PM PST (12/1) 10:14 AM PST (12/1)
Length of Visible Light 9h 42m
Length of Day
8h 28m
Waning Gibbous, 91% of the Moon is Illuminated
Dec 1
Waning Gibbous
Dec 6
Last Quarter
Dec 13
New
Dec 19
First Quarter
Dec 28
Full

Hourly Weather History & Observations

Time (PST) Temp. Windchill Dew Point Humidity Pressure Visibility Wind Dir Wind Speed Gust Speed Precip Events Conditions
12:00 AM 48.7 °F - 48.0 °F 97% 29.19 in - ESE 16.1 mph 21.9 mph 0.01 in   Unknown
1:00 AM 48 °F - 47 °F 95% 29.18 in - SE 26.5 mph - -  
1:00 AM 47.8 °F - 46.9 °F 97% 29.18 in - SE 26.5 mph 33.4 mph 0.16 in   Unknown
2:00 AM 47.8 °F - 47.1 °F 97% 29.18 in - SE 17.3 mph - 0.07 in   Unknown
3:00 AM 48.7 °F - 48.2 °F 98% 29.18 in - SSE 18.4 mph - 0.02 in   Unknown
4:00 AM 48 °F - 47 °F 96% 29.21 in - South 16.1 mph - -  
4:00 AM 47.8 °F - 47.1 °F 97% 29.21 in - South 16.1 mph - 0.02 in   Unknown
5:00 AM 48.2 °F - 46.9 °F 95% 29.25 in - South 19.6 mph - N/A   Unknown
6:00 AM 48.4 °F - 46.4 °F 93% 29.29 in - South 21.9 mph - N/A   Unknown
7:00 AM 48 °F - 46 °F 92% 29.30 in - SE 20.7 mph - -  
7:00 AM 47.8 °F - 46.4 °F 95% 29.30 in - SE 20.7 mph - N/A   Unknown
8:00 AM 48.0 °F - 46.6 °F 95% 29.31 in - SE 28.8 mph - 0.02 in   Unknown
9:00 AM 48.4 °F - 46.9 °F 95% 29.32 in - SSE 27.6 mph 33.4 mph 0.01 in   Unknown
10:00 AM 48 °F - 47 °F 95% 29.33 in - SSE 27.6 mph - -  
10:00 AM 48.4 °F - 46.9 °F 95% 29.33 in - SSE 27.6 mph - 0.04 in   Unknown
11:00 AM 49.1 °F - 47.3 °F 93% 29.33 in - SE 27.6 mph 33.4 mph N/A   Unknown
12:00 PM 50.5 °F - 49.3 °F 95% 29.32 in - SSE 31.1 mph - 0.07 in   Unknown
1:00 PM 51 °F - 49 °F 89% 29.32 in - SSE 29.9 mph - -  
1:00 PM 50.5 °F - 48.7 °F 94% 29.32 in - SSE 29.9 mph - N/A   Unknown
2:00 PM 50.5 °F - 48.7 °F 94% 29.32 in - SE 27.6 mph - N/A   Unknown
3:00 PM 50.2 °F - 47.7 °F 91% 29.32 in - SSE 28.8 mph 35.7 mph N/A   Unknown
4:00 PM 48 °F - 45 °F 86% 29.34 in - SSE 21.9 mph - -  
4:00 PM 48.0 °F - 45.1 °F 90% 29.34 in - SSE 21.9 mph - N/A   Unknown
5:00 PM 48.4 °F - 45.3 °F 89% 29.32 in - SE 20.7 mph - N/A   Unknown
6:00 PM 49.1 °F - 45.7 °F 88% 29.30 in - ESE 18.4 mph 27.6 mph 0.01 in   Unknown
7:00 PM 48 °F - 46 °F 90% 29.28 in - SE 25.3 mph - -  
7:00 PM 48.0 °F - 46.0 °F 93% 29.28 in - SE 25.3 mph 32.2 mph 0.05 in   Unknown
8:00 PM 46.2 °F 38.7 °F 44.4 °F 93% 29.24 in - ESE 19.6 mph - 0.05 in   Unknown
9:00 PM 46.4 °F 38.3 °F 44.6 °F 93% 29.24 in - SSE 23.0 mph - N/A   Unknown
10:00 PM 46 °F - 43 °F 86% 29.22 in - SE 27.6 mph - -  
10:00 PM 45.5 °F 36.3 °F 43.2 °F 92% 29.22 in - SE 27.6 mph - 0.01 in   Unknown
11:00 PM 44.6 °F 38.4 °F 42.8 °F 93% 29.20 in - East 12.7 mph 24.2 mph 0.02 in   Unknown